Regional Weather Roundup
Issued by NWS

Home | Current Version | Previous Version | Graphics & Text | Print | Product List | Glossary On
Versions: 1 2 3 4 5 6 7 8 9 10 11 12 13 14 15 16 17 18 19 20 21 22 23 24 25 26 27 28 29 30 31 32 33 34 35 36 37 38 39 40 41 42 43 44 45 46 47 48 49 50
000
ASUS43 KLMK 231610
RWRKY
KENTUCKY REGIONAL WEATHER ROUNDUP
NATIONAL WEATHER SERVICE LOUISVILLE KY
1200 PM EDT WED APR 23 2014

NOTE "FAIR" INDICATES FEW OR NO CLOUDS BELOW 12,000 FEET
WITH NO SIGNIFICANT WEATHER AND/OR OBSTRUCTIONS TO VISIBILITY.

KYZ001>023-026-027-061>063-070>075-231700-
WESTERN AND SOUTH CENTRAL KENTUCKY

CITY           SKY/WX    TMP DP  RH WIND       PRES   REMARKS
PADUCAH        SUNNY     62  37  39 E10       30.09F
HENDERSON      SUNNY     54  34  47 NE3       30.14R
OWENSBORO      SUNNY     55  31  40 N7        30.13F
HOPKINSVILLE   SUNNY     59  36  42 NE8       30.11F
BOWLING GREEN  SUNNY     59  31  34 NE7       30.12R
GLASGOW        SUNNY     57  31  38 NW8       30.11R
$$

KYZ024-025-028>034-038-045-046-053-231700-
NORTH CENTRAL KENTUCKY

CITY           SKY/WX    TMP DP  RH WIND       PRES   REMARKS
LOUISVILLE/SDF SUNNY     53  28  38 N12       30.13R
LOUISVILLE/LOU SUNNY     56  31  38 N5        30.13R
FORT KNOX      SUNNY     53  27  35 N12       30.11R
$$

KYZ035>037-039>044-047>052-055>060-089>105-231700-
NORTHEAST KENTUCKY

CITY           SKY/WX    TMP DP  RH WIND       PRES   REMARKS
LEXINGTON      SUNNY     52  32  46 VRB3      30.10S
COVINGTON      SUNNY     51  30  44 N5        30.11R
FRANKFORT      SUNNY     52  30  43 VRB5      30.10R
$$

KYZ054-064>069-076>088-106>120-231700-
SOUTHEAST KENTUCKY

CITY           SKY/WX    TMP DP  RH WIND       PRES   REMARKS
JACKSON        SUNNY     52  28  39 VRB5      30.06S
LONDON         SUNNY     56  29  35 CALM      30.07S
SOMERSET       SUNNY     54  28  37 N8        30.10S
MIDDLESBORO    SUNNY     59  30  33 N6        30.06S
MONTICELLO     SUNNY     57  32  39 VRB6      30.10F
$$




USA.gov is the U.S. government's official web portal to all federal, state and local government web resources and services.